STARLINK-32844, 62820

Orbit data source: Space-Track

STARLINK-32844, 62820 is a payload satellite owned by SpaceX/Seattle (US) in LEO that was launched on Fri, 24 Jan 2025 UTC via an FALCON 9 launch vehicle from the Air Force Western Test Range (AFWTR). Payload-class satellites include a variety of spacecraft equipped with specific instruments for various scientific and technological missions. These include communications satellites like Starlink; space stations such as the ISS; scientific satellites like the Hubble; Earth observation satellites from companies like Planet Labs, Umbra, and HawkEye 360; GPS; miniature CubeSats for education and research; and military/defense satellites.

Loading next visibility...
Identifier
62820, 2025-018Q
Orbit
LEO
Last TLE update
12 hours ago
Origin
Manufacturer
SpaceX/Seattle
Mission
Operational Commercial Communications
Bus & Motor
STARLINK V2M, Unknown motor
Mass
730 kg wet, ~700 kg dry
Launch date (UTC)
2025-01-24 (6 months ago)
Launch vehicle
FALCON 9
Launch site
Air Force Western Test Range (AFWTR)
Object type
Payload
Rocket body
Debris
Shape & HBR
Box + 2 Pan, 14.5 m
Radar Cross Section
33.884 m², Large (>1 m²)

Expand to show TLE details & history

TLE from 12 hours ago
0 STARLINK-32844
1 62820U 25018Q   25199.50691813  .00016289  00000-0  56098-3 0  9990
2 62820  53.1576 317.3764 0001634  83.8141 276.3045 15.30194533 27311
Epoch: 2025-07-18T12:09Z
TLE epoch observation values (Epoch: 2025-07-18T12:09:57.726Z)
Latitude
-0.00009°
Longitude
-161.67158°
Altitude
476.008 km
Speed
7.629 km/s
True Right ascension
21h 09m 30s
True Declination
0° 00' 00"
Sunlit
Object was in full shadow at epoch
Visualization orbit readout
Latitude
36.21223°
Longitude
-16.97191°
Altitude
477.239 km
Speed
7.632 km/s
Apparent Right ascension
03h 54m 34s
Apparent Declination
0° 20' 10"
Sunlit
Object is in daylight
Visualization observer readout
Local Sidereal Time
12:30:35
Azimuth
297.198° NW
Elevation
-29.109°
Doppler factor
1
Orbital elements
Apogee altitude
476.608 km
Perigee altitude
474.368 km
Semi-major axis
6,853.625 km
Eccentricity
0.00016
Inclination
53.1576°
RAAN
317.3764°
Arg. of periapsis
83.8141°
True anomaly
276.28589°
Mean anomaly
276.3045°
Eccentric anomaly
276.29519°
Mean motion
3.82527 °/min
Orbital period
94.11 mins
BSTAR
0.00056098
Loading maneuver chart data...
Loading SW <> Apogee altitude chart data...
Loading historical data...
Loading historical data...
Loading historical data...
Loading historical data...
Loading historical data...
Loading historical data...
Loading historical data...
|